Weather History for Taylorville, IL

Change the Weather History Date:

Monday, March 3, 2014

  Actual Average (KSPI) Record (KSPI)
Temperature  
Mean Temperature 11 °F 37 °F  
Max Temperature 21 °F 46 °F 80 °F (1974)
Min Temperature 1 °F 28 °F -2 °F (2014)
Degree Days  
Heating Degree Days 54 28  
Month to date heating degree days 85  
Since 1 July heating degree days 4356  
Cooling Degree Days 0 0  
Month to date cooling degree days 0  
Year to date cooling degree days 0  
Moisture  
Dew Point 1 °F    
Average Humidity 64    
Maximum Humidity 73    
Minimum Humidity 56    
Precipitation  
Precipitation 0.00 in 0.08 in 1.15 in (1985)
Month to date precipitation 0.23  
Year to date precipitation 3.86  
Snow  
Snow 0.00 in 0.20 in 3.40 in (1988)
Month to date snowfall 0.4  
Since 1 July snowfall 18.5  
Snow Depth -    
Sea Level Pressure  
Sea Level Pressure 30.43 in    
Wind  
Wind Speed 12 mph (NNE)    
Max Wind Speed 18 mph    
Max Gust Speed 25 mph    
Visibility 10 miles    
Events      
T = Trace of Precipitation, MM = Missing Value Source: NWS Daily Summary

Daily Weather History Graph

Daily Weather History Graph

Search for Another Location

Airport:

Trip Planner

Search our weather history database for the weather conditions in past years. The results will help you decide how hot, cold, wet, or windy it might be!

Date:

Astronomy

Mar. 03, 2014 Rise Set
Actual Time 6:27 AM CST 5:51 PM CST
Civil Twilight 6:00 AM CST 6:18 PM CST
Nautical Twilight 5:29 AM CST 6:49 PM CST
Astronomical Twilight 4:58 AM CST 7:21 PM CST
Moon 7:36 AM CST (3/3) 8:53 PM CST (3/3)
Length of Visible Light 12h 18m
Length of Day
11h 24m
Waxing Crescent, 8% of the Moon is Illuminated
Mar 3
Waxing Crescent
Mar 8
First Quarter
Mar 16
Full
Mar 23
Last Quarter
Mar 30
New

Hourly Weather History & Observations

Time (CST) Temp. Windchill Dew Point Humidity Pressure Visibility Wind Dir Wind Speed Gust Speed Precip Events Conditions
12:15 AM 5.0 °F -14.7 °F -5.8 °F 61% 30.40 in 10.0 mi North 18.4 mph - N/A   Scattered Clouds
12:35 AM 5.0 °F -13.6 °F -5.8 °F 61% 30.40 in 10.0 mi North 16.1 mph 25.3 mph N/A   Scattered Clouds
12:55 AM 5.0 °F -13.6 °F -5.8 °F 61% 30.40 in 10.0 mi North 16.1 mph - N/A   Clear
1:15 AM 5.0 °F -14.2 °F -5.8 °F 61% 30.39 in 10.0 mi North 17.3 mph 21.9 mph N/A   Clear
1:35 AM 5.0 °F -14.2 °F -7.6 °F 56% 30.39 in 10.0 mi North 17.3 mph 23.0 mph N/A   Scattered Clouds
1:55 AM 3.2 °F -15.3 °F -7.6 °F 61% 30.38 in 10.0 mi North 15.0 mph - N/A   Scattered Clouds
2:15 AM 3.2 °F -15.9 °F -7.6 °F 61% 30.38 in 10.0 mi North 16.1 mph 19.6 mph N/A   Clear
2:35 AM 3.2 °F -14.6 °F -7.6 °F 61% 30.38 in 10.0 mi North 13.8 mph - N/A   Clear
2:55 AM 3.2 °F -14.6 °F -7.6 °F 61% 30.39 in 10.0 mi North 13.8 mph - N/A   Clear
3:15 AM 3.2 °F -15.3 °F -7.6 °F 61% 30.40 in 10.0 mi North 15.0 mph - N/A   Clear
3:35 AM 3.2 °F -14.6 °F -7.6 °F 61% 30.41 in 10.0 mi North 13.8 mph - N/A   Clear
3:55 AM 3.2 °F -14.6 °F -7.6 °F 61% 30.41 in 10.0 mi North 13.8 mph - N/A   Clear
4:15 AM 3.2 °F -14.6 °F -7.6 °F 61% 30.41 in 10.0 mi North 13.8 mph - N/A   Clear
4:35 AM 1.4 °F -16.9 °F -7.6 °F 66% 30.41 in 10.0 mi North 13.8 mph - N/A   Clear
4:55 AM 1.4 °F -16.9 °F -7.6 °F 66% 30.42 in 10.0 mi North 13.8 mph - N/A   Clear
5:15 AM 1.4 °F -14.5 °F -7.6 °F 66% 30.44 in 10.0 mi North 10.4 mph - N/A   Clear
5:40 AM 1.4 °F -16.1 °F -7.6 °F 66% 30.45 in 10.0 mi NNW 12.7 mph - N/A   Clear
5:55 AM 1.4 °F -15.3 °F -7.6 °F 66% 30.45 in 10.0 mi NNW 11.5 mph - N/A   Clear
6:15 AM 1.4 °F -16.1 °F -9.4 °F 61% 30.46 in 10.0 mi North 12.7 mph - N/A   Clear
6:35 AM 1.4 °F -15.3 °F -7.6 °F 66% 30.46 in 10.0 mi North 11.5 mph - N/A   Clear
6:55 AM 1.4 °F -16.9 °F -9.4 °F 61% 30.47 in 10.0 mi North 13.8 mph - N/A   Clear
7:15 AM 1.4 °F -16.1 °F -9.4 °F 61% 30.48 in 10.0 mi North 12.7 mph - N/A   Clear
7:35 AM 1.4 °F -14.5 °F -7.6 °F 66% 30.49 in 10.0 mi North 10.4 mph - N/A   Clear
7:55 AM 1.4 °F -14.5 °F -7.6 °F 66% 30.50 in 10.0 mi North 10.4 mph - N/A   Clear
8:15 AM 3.2 °F -12.2 °F -7.6 °F 61% 30.50 in 10.0 mi North 10.4 mph - N/A   Clear
8:35 AM 3.2 °F -13.1 °F -7.6 °F 61% 30.50 in 10.0 mi North 11.5 mph - N/A   Clear
8:55 AM 3.2 °F -11.3 °F -5.8 °F 66% 30.50 in 10.0 mi North 9.2 mph - N/A   Clear
9:15 AM 5.0 °F -9.1 °F -5.8 °F 61% 30.51 in 10.0 mi North 9.2 mph - N/A   Clear
9:35 AM 5.0 °F -9.1 °F -4.0 °F 66% 30.50 in 10.0 mi North 9.2 mph - N/A   Clear
9:55 AM 6.8 °F -6.9 °F -4.0 °F 61% 30.50 in 10.0 mi NNW 9.2 mph - N/A   Clear
10:20 AM 8.6 °F -3.7 °F -0.4 °F 67% 30.50 in 10.0 mi North 8.1 mph - N/A   Clear
10:35 AM 10.4 °F -0.4 °F 1.4 °F 67% 30.50 in 10.0 mi NNE 6.9 mph - N/A   Clear
10:55 AM 10.4 °F -1.5 °F 1.4 °F 67% 30.50 in 10.0 mi North 8.1 mph - N/A   Clear
11:15 AM 12.2 °F -1.0 °F 1.4 °F 62% 30.50 in 10.0 mi North 10.4 mph - N/A   Clear
11:35 AM 12.2 °F -0.2 °F 3.2 °F 67% 30.49 in 10.0 mi North 9.2 mph - N/A   Clear
11:55 AM 14.0 °F 2.0 °F 3.2 °F 62% 30.49 in 10.0 mi NNE 9.2 mph - N/A   Clear
12:15 PM 14.0 °F 2.9 °F 3.2 °F 62% 30.49 in 10.0 mi NNE 8.1 mph - N/A   Clear
12:35 PM 14.0 °F 2.0 °F 3.2 °F 62% 30.48 in 10.0 mi NNE 9.2 mph - N/A   Clear
12:55 PM 15.8 °F 4.2 °F 5.0 °F 62% 30.47 in 10.0 mi NNE 9.2 mph - N/A   Clear
1:15 PM 17.6 °F 7.3 °F 5.0 °F 58% 30.47 in 10.0 mi North 8.1 mph - N/A   Clear
1:35 PM 17.6 °F 9.3 °F 5.0 °F 58% 30.47 in 10.0 mi North 5.8 mph 9.2 mph N/A   Clear
1:55 PM 17.6 °F 7.3 °F 6.8 °F 63% 30.46 in 10.0 mi North 8.1 mph - N/A   Clear
2:15 PM 19.4 °F 9.5 °F 8.6 °F 63% 30.45 in 10.0 mi North 8.1 mph - N/A   Clear
2:35 PM 19.4 °F 9.5 °F 8.6 °F 63% 30.45 in 10.0 mi North 8.1 mph - N/A   Clear
2:50 PM 19.4 °F 10.4 °F 8.6 °F 63% 30.45 in 10.0 mi North 6.9 mph - N/A   Clear
3:15 PM 19.4 °F 9.5 °F 8.6 °F 63% 30.45 in 10.0 mi North 8.1 mph - N/A   Clear
3:35 PM 19.4 °F 10.4 °F 8.6 °F 63% 30.45 in 10.0 mi North 6.9 mph - N/A   Clear
3:55 PM 19.4 °F 10.4 °F 8.6 °F 63% 30.45 in 10.0 mi NNE 6.9 mph - N/A   Clear
4:15 PM 21.2 °F 12.6 °F 8.6 °F 58% 30.43 in 10.0 mi NNE 6.9 mph - N/A   Clear
4:35 PM 19.4 °F 8.6 °F 8.6 °F 63% 30.43 in 10.0 mi North 9.2 mph - N/A   Clear
4:55 PM 19.4 °F 9.5 °F 8.6 °F 63% 30.43 in 10.0 mi North 8.1 mph - N/A   Clear
5:15 PM 19.4 °F 7.9 °F 8.6 °F 63% 30.42 in 10.0 mi North 10.4 mph - N/A   Clear
5:35 PM 19.4 °F 9.5 °F 10.4 °F 68% 30.43 in 10.0 mi NNE 8.1 mph - N/A   Clear
5:55 PM 19.4 °F 9.5 °F 10.4 °F 68% 30.43 in 10.0 mi North 8.1 mph - N/A   Clear
6:15 PM 17.6 °F 9.3 °F 10.4 °F 73% 30.42 in 10.0 mi NE 5.8 mph - N/A   Clear
6:35 PM 17.6 °F 7.3 °F 8.6 °F 68% 30.42 in 10.0 mi East 8.1 mph - N/A   Clear
6:55 PM 17.6 °F 10.7 °F 6.8 °F 63% 30.42 in 10.0 mi East 4.6 mph - N/A   Clear
7:15 PM 17.6 °F 10.7 °F 5.0 °F 58% 30.42 in 10.0 mi ENE 4.6 mph - N/A   Clear
7:35 PM 17.6 °F 10.7 °F 5.0 °F 58% 30.42 in 10.0 mi East 4.6 mph - N/A   Clear
7:55 PM 15.8 °F 10.2 °F 5.0 °F 62% 30.41 in 10.0 mi East 3.5 mph - N/A   Clear
8:15 PM 15.8 °F 10.2 °F 5.0 °F 62% 30.41 in 10.0 mi ENE 3.5 mph - N/A   Clear
8:35 PM 15.8 °F 10.2 °F 5.0 °F 62% 30.41 in 10.0 mi East 3.5 mph - N/A   Clear
8:55 PM 14.0 °F - 5.0 °F 67% 30.41 in 10.0 mi Calm Calm - N/A   Clear
9:15 PM 15.8 °F 7.2 °F 6.8 °F 68% 30.40 in 10.0 mi East 5.8 mph - N/A   Clear
9:35 PM 15.8 °F 7.2 °F 6.8 °F 68% 30.39 in 10.0 mi East 5.8 mph - N/A   Clear
9:55 PM 15.8 °F 6.1 °F 6.8 °F 68% 30.38 in 10.0 mi East 6.9 mph - N/A   Clear
10:15 PM 14.0 °F 6.5 °F 6.8 °F 73% 30.37 in 10.0 mi East 4.6 mph - N/A   Clear
10:35 PM 14.0 °F 6.5 °F 6.8 °F 73% 30.37 in 10.0 mi East 4.6 mph - N/A   Clear
10:55 PM 14.0 °F 8.2 °F 6.8 °F 73% 30.36 in 10.0 mi East 3.5 mph - N/A   Clear
11:15 PM 14.0 °F 5.1 °F 6.8 °F 73% 30.35 in 10.0 mi East 5.8 mph - N/A   Clear
11:35 PM 14.0 °F 2.9 °F 6.8 °F 73% 30.34 in 10.0 mi ESE 8.1 mph - N/A   Clear
11:55 PM 14.0 °F 6.5 °F 6.8 °F 73% 30.33 in 10.0 mi ESE 4.6 mph - N/A   Clear